| time (UTC) | temp F | wind direction | speed MPH | gust MPH | rain 1hr in | rain 24hr in | rain mn in | humidity % | barometer mb |
| 20260507093456 | 41 | 317 | 3.0 | 8.0 | 0.00 | 0.00 | 0.00 | 83 | 1015.0 |
| 20260507092954 | 41 | 293 | 1.0 | 2.0 | 0.00 | 0.00 | 0.00 | 83 | 1015.1 |
| 20260507092450 | 41 | 262 | 3.0 | 4.0 | 0.00 | 0.00 | 0.00 | 83 | 1015.2 |
| 20260507091947 | 41 | 239 | 2.0 | 4.0 | 0.00 | 0.00 | 0.00 | 83 | 1015.0 |
| 20260507091444 | 41 | 274 | 2.0 | 6.0 | 0.00 | 0.00 | 0.00 | 83 | 1015.2 |
| 20260507090940 | 42 | 284 | 2.0 | 6.0 | 0.00 | 0.00 | 0.00 | 82 | 1015.3 |
| 20260507090435 | 42 | 303 | 3.0 | 6.0 | 0.00 | 0.00 | 0.00 | 82 | 1015.2 |
| 20260507085932 | 42 | 217 | 3.0 | 4.0 | 0.00 | 0.00 | 0.00 | 82 | 1015.1 |
| 20260507085430 | 42 | 326 | 2.0 | 4.0 | 0.00 | 0.00 | 0.00 | 83 | 1015.3 |
| 20260507084927 | 42 | 283 | 1.0 | 4.0 | 0.00 | 0.00 | 0.00 | 83 | 1015.3 |
| 20260507084424 | 42 | 249 | 4.0 | 6.0 | 0.00 | 0.00 | 0.00 | 83 | 1015.4 |
| 20260507083920 | 42 | 276 | 2.0 | 4.0 | 0.00 | 0.00 | 0.00 | 82 | 1015.5 |
| 20260507083417 | 42 | 279 | 3.0 | 6.0 | 0.00 | 0.00 | 0.00 | 82 | 1015.4 |
| 20260507082913 | 42 | 226 | 2.0 | 4.0 | 0.00 | 0.00 | 0.00 | 82 | 1015.5 |
| 20260507082409 | 42 | 249 | 4.0 | 6.0 | 0.00 | 0.00 | 0.00 | 82 | 1015.3 |
| 20260507081906 | 42 | 283 | 1.0 | 4.0 | 0.00 | 0.00 | 0.00 | 82 | 1015.6 |
| 20260507081402 | 42 | 281 | 2.0 | 3.0 | 0.00 | 0.00 | 0.00 | 82 | 1015.5 |
| 20260507080859 | 42 | 283 | 3.0 | 7.0 | 0.00 | 0.00 | 0.00 | 82 | 1015.8 |
| 20260507080355 | 42 | 230 | 5.0 | 7.0 | 0.00 | 0.00 | 0.00 | 82 | 1015.9 |
| 20260507075851 | 42 | 288 | 3.0 | 4.0 | 0.00 | 0.00 | 0.00 | 82 | 1015.8 |
| 20260507075347 | 42 | 230 | 4.0 | 8.0 | 0.00 | 0.00 | 0.00 | 82 | 1015.9 |
| 20260507074843 | 42 | 306 | 3.0 | 6.0 | 0.00 | 0.00 | 0.00 | 82 | 1015.9 |
| 20260507074341 | 42 | 268 | 2.0 | 6.0 | 0.00 | 0.00 | 0.00 | 82 | 1015.8 |
| 20260507073838 | 42 | 292 | 3.0 | 6.0 | 0.00 | 0.00 | 0.00 | 82 | 1016.2 |
| 20260507073334 | 42 | 267 | 2.0 | 6.0 | 0.00 | 0.00 | 0.00 | 82 | 1016.2 |
| 20260507072832 | 42 | 239 | 4.0 | 7.0 | 0.00 | 0.00 | 0.00 | 82 | 1016.2 |
| 20260507072329 | 42 | 225 | 6.0 | 8.0 | 0.00 | 0.00 | 0.00 | 82 | 1016.5 |
| 20260507071827 | 42 | 303 | 4.0 | 6.0 | 0.00 | 0.00 | 0.00 | 82 | 1016.5 |
| 20260507071324 | 42 | 288 | 2.0 | 4.0 | 0.00 | 0.00 | 0.00 | 82 | 1016.6 |
| 20260507070820 | 42 | 247 | 2.0 | 8.0 | 0.00 | 0.00 | 0.00 | 82 | 1016.9 |
| 20260507070317 | 42 | 302 | 2.0 | 4.0 | 0.00 | 0.00 | 0.00 | 82 | 1016.8 |
| 20260507065814 | 43 | 280 | 2.0 | 6.0 | 0.00 | 0.00 | 0.00 | 82 | 1016.9 |
| 20260507065310 | 43 | 285 | 6.0 | 13.0 | 0.00 | 0.00 | 0.00 | 82 | 1016.9 |
| 20260507064808 | 43 | 330 | 4.0 | 7.0 | 0.00 | 0.00 | 0.00 | 82 | 1017.0 |
| 20260507064306 | 43 | 255 | 2.0 | 8.0 | 0.00 | 0.00 | 0.00 | 81 | 1017.1 |
| 20260507063804 | 43 | 238 | 3.0 | 7.0 | 0.00 | 0.00 | 0.00 | 81 | 1017.0 |
| 20260507063301 | 43 | 269 | 2.0 | 6.0 | 0.00 | 0.00 | 0.00 | 81 | 1016.9 |
| 20260507062757 | 43 | 268 | 2.0 | 4.0 | 0.00 | 0.00 | 0.00 | 81 | 1017.0 |
| 20260507062254 | 43 | 316 | 3.0 | 6.0 | 0.00 | 0.00 | 0.00 | 81 | 1017.1 |
| 20260507061753 | 44 | 292 | 2.0 | 6.0 | 0.00 | 0.00 | 0.00 | 81 | 1017.4 |
| 20260507061250 | 44 | 249 | 2.0 | 4.0 | 0.00 | 0.00 | 0.00 | 80 | 1017.1 |
| 20260507060748 | 44 | 248 | 3.0 | 7.0 | 0.00 | 0.00 | 0.00 | 80 | 1017.2 |
| 20260507060244 | 44 | 258 | 1.0 | 6.0 | 0.00 | 0.00 | 0.00 | 80 | 1017.4 |
| 20260507055741 | 44 | 291 | 2.0 | 4.0 | 0.00 | 0.00 | 0.00 | 80 | 1017.5 |
| 20260507055236 | 44 | 299 | 4.0 | 7.0 | 0.00 | 0.00 | 0.00 | 79 | 1017.4 |
| 20260507054733 | 44 | 333 | 2.0 | 4.0 | 0.00 | 0.00 | 0.00 | 79 | 1017.4 |
| 20260507054230 | 44 | 275 | 4.0 | 7.0 | 0.00 | 0.00 | 0.00 | 79 | 1017.5 |
| 20260507053727 | 44 | 285 | 3.0 | 4.0 | 0.00 | 0.00 | 0.00 | 79 | 1017.4 |
| 20260507053225 | 44 | 293 | 4.0 | 7.0 | 0.00 | 0.00 | 0.00 | 78 | 1017.5 |
| 20260507052724 | 44 | 272 | 2.0 | 6.0 | 0.00 | 0.00 | 0.00 | 78 | 1017.5 |
| 20260507052219 | 44 | 273 | 3.0 | 9.0 | 0.00 | 0.00 | 0.00 | 78 | 1017.5 |
| 20260507051717 | 44 | 284 | 2.0 | 6.0 | 0.00 | 0.00 | 0.00 | 77 | 1017.8 |
| 20260507051214 | 44 | 237 | 4.0 | 8.0 | 0.00 | 0.00 | 0.00 | 77 | 1017.6 |
| 20260507050710 | 44 | 292 | 3.0 | 4.0 | 0.00 | 0.00 | 0.00 | 76 | 1017.5 |
| 20260507050208 | 44 | 254 | 3.0 | 7.0 | 0.00 | 0.00 | 0.00 | 75 | 1017.5 |
| 20260507045704 | 45 | 254 | 3.0 | 7.0 | 0.00 | 0.00 | 0.00 | 75 | 1017.7 |
| 20260507045200 | 45 | 261 | 2.0 | 6.0 | 0.00 | 0.00 | 0.00 | 74 | 1017.7 |
| 20260507044658 | 45 | 311 | 3.0 | 6.0 | 0.00 | 0.00 | 0.00 | 73 | 1017.8 |
| 20260507044154 | 45 | 268 | 5.0 | 8.0 | 0.00 | 0.00 | 0.00 | 72 | 1017.9 |
| 20260507043651 | 44 | 288 | 3.0 | 8.0 | 0.00 | 0.00 | 0.00 | 71 | 1018.0 |
| 20260507043148 | 44 | 308 | 2.0 | 3.0 | 0.00 | 0.00 | 0.00 | 70 | 1017.9 |
| 20260507042644 | 45 | 277 | 3.0 | 7.0 | 0.00 | 0.00 | 0.00 | 69 | 1017.9 |
| 20260507042139 | 45 | 305 | 2.0 | 8.0 | 0.00 | 0.00 | 0.00 | 69 | 1018.0 |
| 20260507041636 | 45 | 265 | 3.0 | 4.0 | 0.00 | 0.00 | 0.00 | 68 | 1018.1 |
| 20260507041132 | 45 | 295 | 2.0 | 3.0 | 0.00 | 0.00 | 0.00 | 67 | 1018.0 |
| 20260507040630 | 45 | 285 | 2.0 | 4.0 | 0.00 | 0.00 | 0.00 | 66 | 1017.9 |
| 20260507040126 | 46 | 279 | 3.0 | 6.0 | 0.00 | 0.00 | 0.00 | 66 | 1018.2 |
| 20260507035622 | 46 | 263 | 2.0 | 3.0 | 0.00 | 0.00 | 0.00 | 65 | 1018.2 |
| 20260507035118 | 46 | 283 | 3.0 | 4.0 | 0.00 | 0.00 | 0.00 | 64 | 1018.3 |
| 20260507034615 | 46 | 269 | 2.0 | 3.0 | 0.00 | 0.00 | 0.00 | 64 | 1018.2 |
| 20260507034113 | 46 | 291 | 1.0 | 4.0 | 0.00 | 0.00 | 0.00 | 63 | 1018.3 |
| 20260507033611 | 47 | 269 | 3.0 | 4.0 | 0.00 | 0.00 | 0.00 | 63 | 1018.2 |
| 20260507033108 | 47 | 281 | 2.0 | 4.0 | 0.00 | 0.00 | 0.00 | 63 | 1018.4 |
| 20260507032605 | 47 | 249 | 3.0 | 6.0 | 0.00 | 0.00 | 0.00 | 62 | 1018.4 |
| 20260507032101 | 47 | 286 | 2.0 | 4.0 | 0.00 | 0.00 | 0.00 | 62 | 1018.4 |
| 20260507031558 | 48 | 262 | 2.0 | 3.0 | 0.00 | 0.00 | 0.00 | 62 | 1018.4 |
| 20260507031055 | 48 | 231 | 3.0 | 4.0 | 0.00 | 0.00 | 0.00 | 61 | 1018.3 |
| 20260507030551 | 48 | 277 | 4.0 | 7.0 | 0.00 | 0.00 | 0.00 | 61 | 1018.4 |
| 20260507030049 | 48 | 287 | 2.0 | 3.0 | 0.00 | 0.00 | 0.00 | 61 | 1018.3 |
| 20260507025546 | 48 | 309 | 1.0 | 3.0 | 0.00 | 0.00 | 0.00 | 61 | 1018.4 |
| 20260507025043 | 48 | 252 | 2.0 | 6.0 | 0.00 | 0.00 | 0.00 | 61 | 1018.2 |
| 20260507024541 | 48 | 272 | 2.0 | 6.0 | 0.00 | 0.00 | 0.00 | 61 | 1018.2 |
| 20260507024038 | 48 | 298 | 2.0 | 4.0 | 0.00 | 0.00 | 0.00 | 61 | 1018.3 |
| 20260507023533 | 49 | 266 | 3.0 | 4.0 | 0.00 | 0.00 | 0.00 | 61 | 1018.2 |
| 20260507023032 | 49 | 259 | 2.0 | 4.0 | 0.00 | 0.00 | 0.00 | 61 | 1018.1 |
| 20260507022528 | 49 | 253 | 2.0 | 3.0 | 0.00 | 0.00 | 0.00 | 61 | 1018.2 |
| 20260507022028 | 49 | 236 | 3.0 | 6.0 | 0.00 | 0.00 | 0.00 | 61 | 1018.0 |
| 20260507021525 | 50 | 285 | 1.0 | 6.0 | 0.00 | 0.00 | 0.00 | 62 | 1018.2 |
| 20260507021022 | 50 | 302 | 2.0 | 3.0 | 0.00 | 0.00 | 0.00 | 62 | 1018.0 |
| 20260507020519 | 50 | 216 | 4.0 | 6.0 | 0.00 | 0.00 | 0.00 | 62 | 1018.2 |
| 20260507020015 | 50 | 263 | 2.0 | 6.0 | 0.00 | 0.00 | 0.00 | 61 | 1017.9 |
| 20260507015514 | 50 | 235 | 3.0 | 4.0 | 0.00 | 0.00 | 0.00 | 61 | 1018.1 |
| 20260507015011 | 51 | 281 | 3.0 | 4.0 | 0.00 | 0.00 | 0.00 | 60 | 1018.1 |
| 20260507014507 | 51 | 315 | 2.0 | 4.0 | 0.00 | 0.00 | 0.00 | 59 | 1018.1 |
| 20260507014003 | 51 | 239 | 2.0 | 4.0 | 0.00 | 0.00 | 0.00 | 58 | 1018.1 |
| 20260507013500 | 51 | 310 | 2.0 | 3.0 | 0.00 | 0.00 | 0.00 | 57 | 1018.1 |
| 20260507012957 | 51 | 264 | 2.0 | 3.0 | 0.00 | 0.00 | 0.00 | 56 | 1018.1 |
| 20260507012454 | 52 | 273 | 1.0 | 4.0 | 0.00 | 0.00 | 0.00 | 55 | 1018.0 |
| 20260507011951 | 52 | 267 | 3.0 | 4.0 | 0.00 | 0.00 | 0.00 | 54 | 1018.1 |
| 20260507011448 | 52 | 292 | 2.0 | 2.0 | 0.00 | 0.00 | 0.00 | 53 | 1018.0 |
| 20260507010943 | 53 | 241 | 3.0 | 6.0 | 0.00 | 0.00 | 0.00 | 52 | 1018.0 |
| 20260507010438 | 53 | 296 | 3.0 | 6.0 | 0.00 | 0.00 | 0.00 | 52 | 1018.0 |
| 20260507005935 | 53 | 241 | 5.0 | 7.0 | 0.00 | 0.00 | 0.00 | 51 | 1017.9 |
| 20260507005433 | 53 | 279 | 2.0 | 7.0 | 0.00 | 0.00 | 0.00 | 51 | 1017.9 |
| 20260507004929 | 54 | 299 | 2.0 | 6.0 | 0.00 | 0.00 | 0.00 | 50 | 1017.8 |
| 20260507004426 | 54 | 288 | 2.0 | 4.0 | 0.00 | 0.00 | 0.00 | 49 | 1017.9 |
| 20260507003923 | 54 | 175 | 1.0 | 3.0 | 0.00 | 0.00 | 0.00 | 48 | 1018.0 |
| 20260507003418 | 54 | 301 | 1.0 | 8.0 | 0.00 | 0.00 | 0.00 | 48 | 1017.8 |
| 20260507002914 | 54 | 313 | 1.0 | 7.0 | 0.00 | 0.00 | 0.00 | 48 | 1018.0 |
| 20260507002410 | 55 | 330 | 0.0 | 4.0 | 0.00 | 0.00 | 0.00 | 48 | 1018.1 |
| 20260507001907 | 55 | 288 | 2.0 | 4.0 | 0.00 | 0.00 | 0.00 | 48 | 1018.0 |
| 20260507001404 | 55 | 349 | 1.0 | 2.0 | 0.00 | 0.00 | 0.00 | 47 | 1017.9 |
| 20260507000902 | 55 | 227 | 4.0 | 6.0 | 0.00 | 0.00 | 0.00 | 45 | 1017.9 |
| 20260507000357 | 55 | 245 | 1.0 | 7.0 | 0.00 | 0.00 | 0.00 | 46 | 1017.9 |
| 20260506235853 | 55 | 285 | 1.0 | 7.0 | 0.00 | 0.00 | 0.00 | 46 | 1018.0 |
| 20260506235350 | 56 | 328 | 1.0 | 3.0 | 0.00 | 0.00 | 0.00 | 46 | 1018.1 |
| 20260506234845 | 56 | 245 | 2.0 | 3.0 | 0.00 | 0.00 | 0.00 | 45 | 1018.2 |
| 20260506234344 | 56 | 279 | 2.0 | 7.0 | 0.00 | 0.00 | 0.00 | 44 | 1018.3 |
| 20260506233841 | 55 | 286 | 2.0 | 4.0 | 0.00 | 0.00 | 0.00 | 45 | 1018.2 |
| 20260506233337 | 55 | 265 | 2.0 | 4.0 | 0.00 | 0.00 | 0.00 | 45 | 1018.3 |
| 20260506232835 | 55 | 288 | 3.0 | 7.0 | 0.00 | 0.00 | 0.00 | 44 | 1018.2 |
| 20260506232330 | 57 | 271 | 3.0 | 4.0 | 0.00 | 0.00 | 0.00 | 42 | 1018.3 |
| 20260506231826 | 58 | 281 | 3.0 | 4.0 | 0.00 | 0.00 | 0.00 | 43 | 1018.3 |
| 20260506231324 | 58 | 352 | 1.0 | 2.0 | 0.00 | 0.00 | 0.00 | 41 | 1018.3 |
| 20260506230821 | 57 | 293 | 1.0 | 7.0 | 0.00 | 0.00 | 0.00 | 42 | 1018.2 |
| 20260506230318 | 58 | 295 | 1.0 | 2.0 | 0.00 | 0.00 | 0.00 | 42 | 1018.2 |
| 20260506225814 | 57 | 237 | 2.0 | 4.0 | 0.00 | 0.00 | 0.00 | 41 | 1018.4 |
| 20260506225312 | 57 | 306 | 0.0 | 1.0 | 0.00 | 0.00 | 0.00 | 44 | 1018.3 |
| 20260506224808 | 55 | 283 | 2.0 | 4.0 | 0.00 | 0.00 | 0.00 | 44 | 1018.4 |
| 20260506224306 | 56 | 317 | 0.0 | 2.0 | 0.00 | 0.00 | 0.00 | 44 | 1018.5 |
| 20260506223802 | 56 | 294 | 2.0 | 2.0 | 0.00 | 0.00 | 0.00 | 44 | 1018.4 |
| 20260506223258 | 56 | 286 | 1.0 | 3.0 | 0.00 | 0.00 | 0.00 | 41 | 1018.5 |
| 20260506222755 | 56 | 306 | 0.0 | 3.0 | 0.00 | 0.00 | 0.00 | 42 | 1018.5 |
| 20260506222250 | 57 | 344 | 0.0 | 1.0 | 0.00 | 0.00 | 0.00 | 43 | 1018.4 |
| 20260506221748 | 58 | 323 | 1.0 | 3.0 | 0.00 | 0.00 | 0.00 | 41 | 1018.4 |
| 20260506221245 | 58 | 259 | 2.0 | 6.0 | 0.00 | 0.00 | 0.00 | 40 | 1018.6 |
| 20260506220743 | 58 | 294 | 3.0 | 4.0 | 0.00 | 0.00 | 0.00 | 39 | 1018.7 |
| 20260506220237 | 58 | 245 | 3.0 | 4.0 | 0.00 | 0.00 | 0.00 | 38 | 1018.9 |
| 20260506215734 | 57 | 257 | 3.0 | 4.0 | 0.00 | 0.00 | 0.00 | 39 | 1018.9 |
| 20260506215231 | 58 | 316 | 0.0 | 1.0 | 0.00 | 0.00 | 0.00 | 39 | 1019.0 |
| 20260506214727 | 59 | 292 | 2.0 | 4.0 | 0.00 | 0.00 | 0.00 | 35 | 1018.7 |
| 20260506214225 | 60 | 301 | 2.0 | 7.0 | 0.00 | 0.00 | 0.00 | 35 | 1018.9 |
| 20260506213722 | 60 | 267 | 2.0 | 6.0 | 0.00 | 0.00 | 0.00 | 34 | 1018.9 |
| 20260506213219 | 60 | 299 | 5.0 | 6.0 | 0.00 | 0.00 | 0.00 | 36 | 1018.9 |
| 20260506212716 | 58 | 309 | 0.0 | 2.0 | 0.00 | 0.00 | 0.00 | 36 | 1018.9 |
| 20260506212212 | 56 | 318 | 0.0 | 3.0 | 0.00 | 0.00 | 0.00 | 37 | 1018.9 |
| 20260506211707 | 57 | 342 | 1.0 | 2.0 | 0.00 | 0.00 | 0.00 | 37 | 1019.2 |
| 20260506211204 | 58 | 300 | 1.0 | 2.0 | 0.00 | 0.00 | 0.00 | 38 | 1019.1 |
| 20260506210701 | 58 | 234 | 2.0 | 4.0 | 0.00 | 0.00 | 0.00 | 34 | 1019.2 |
| 20260506210158 | 57 | 243 | 4.0 | 8.0 | 0.00 | 0.00 | 0.00 | 34 | 1019.3 |
| 20260506205656 | 57 | 277 | 3.0 | 6.0 | 0.00 | 0.00 | 0.00 | 35 | 1019.4 |
| 20260506205155 | 56 | 243 | 3.0 | 6.0 | 0.00 | 0.00 | 0.00 | 37 | 1019.7 |
| 20260506204653 | 56 | 273 | 2.0 | 6.0 | 0.00 | 0.00 | 0.00 | 37 | 1019.4 |
| 20260506204150 | 57 | 281 | 1.0 | 3.0 | 0.00 | 0.00 | 0.00 | 36 | 1019.5 |
| 20260506203648 | 58 | 346 | 2.0 | 4.0 | 0.00 | 0.00 | 0.00 | 36 | 1019.5 |
| 20260506203145 | 58 | 257 | 1.0 | 2.0 | 0.00 | 0.00 | 0.00 | 37 | 1019.6 |
| 20260506202643 | 60 | 300 | 1.0 | 4.0 | 0.00 | 0.00 | 0.00 | 33 | 1019.6 |
| 20260506202139 | 59 | 333 | 1.0 | 3.0 | 0.00 | 0.00 | 0.00 | 34 | 1019.6 |
| 20260506201636 | 59 | 310 | 2.0 | 3.0 | 0.00 | 0.00 | 0.00 | 34 | 1019.8 |
| 20260506201132 | 60 | 203 | 2.0 | 6.0 | 0.00 | 0.00 | 0.00 | 35 | 1019.8 |
| 20260506200629 | 59 | 324 | 1.0 | 2.0 | 0.00 | 0.00 | 0.00 | 40 | 1019.9 |
| 20260506200126 | 58 | 288 | 1.0 | 6.0 | 0.00 | 0.00 | 0.00 | 35 | 1019.9 |
| 20260506195622 | 59 | 350 | 1.0 | 3.0 | 0.00 | 0.00 | 0.00 | 35 | 1020.1 |
| 20260506195119 | 59 | 296 | 1.0 | 10.0 | 0.00 | 0.00 | 0.00 | 39 | 1019.9 |
| 20260506194616 | 59 | 328 | 0.0 | 6.0 | 0.00 | 0.00 | 0.00 | 39 | 1020.0 |
| 20260506194113 | 59 | 320 | 1.0 | 9.0 | 0.00 | 0.00 | 0.00 | 39 | 1020.2 |
| 20260506193611 | 56 | 273 | 1.0 | 7.0 | 0.00 | 0.00 | 0.00 | 37 | 1020.2 |
| 20260506193108 | 56 | 318 | 2.0 | 4.0 | 0.00 | 0.00 | 0.00 | 38 | 1020.0 |
| 20260506192604 | 55 | 288 | 3.0 | 8.0 | 0.00 | 0.00 | 0.00 | 38 | 1020.1 |
| 20260506192100 | 55 | 298 | 0.0 | 3.0 | 0.00 | 0.00 | 0.00 | 37 | 1020.1 |
| 20260506191557 | 55 | 278 | 2.0 | 4.0 | 0.00 | 0.00 | 0.00 | 38 | 1020.2 |
| 20260506191053 | 55 | 4 | 2.0 | 2.0 | 0.00 | 0.00 | 0.00 | 38 | 1020.5 |
| 20260506190550 | 55 | 250 | 2.0 | 6.0 | 0.00 | 0.00 | 0.00 | 39 | 1020.7 |
| 20260506190047 | 55 | 256 | 1.0 | 2.0 | 0.00 | 0.00 | 0.00 | 37 | 1020.5 |
| 20260506185544 | 56 | 297 | 1.0 | 1.0 | 0.00 | 0.00 | 0.00 | 41 | 1020.7 |
| 20260506185041 | 56 | 331 | 1.0 | 2.0 | 0.00 | 0.00 | 0.00 | 38 | 1020.7 |
| 20260506184538 | 54 | 236 | 2.0 | 3.0 | 0.00 | 0.00 | 0.00 | 38 | 1020.6 |
| 20260506184036 | 54 | 298 | 0.0 | 1.0 | 0.00 | 0.00 | 0.00 | 38 | 1021.0 |
| 20260506183531 | 55 | 302 | 1.0 | 3.0 | 0.00 | 0.00 | 0.00 | 39 | 1021.0 |
| 20260506183028 | 55 | 357 | 0.0 | 2.0 | 0.00 | 0.00 | 0.00 | 39 | 1020.9 |
| 20260506182526 | 55 | 336 | 1.0 | 2.0 | 0.00 | 0.00 | 0.00 | 38 | 1021.0 |
| 20260506182022 | 56 | 315 | 1.0 | 1.0 | 0.00 | 0.00 | 0.00 | 37 | 1020.9 |
| 20260506181520 | 57 | 295 | 2.0 | 4.0 | 0.00 | 0.00 | 0.00 | 41 | 1020.9 |
| 20260506181017 | 55 | 316 | 0.0 | 3.0 | 0.00 | 0.00 | 0.00 | 38 | 1020.9 |
| 20260506180514 | 53 | 354 | 0.0 | 1.0 | 0.00 | 0.00 | 0.00 | 39 | 1021.1 |
| 20260506180010 | 55 | 333 | 1.0 | 1.0 | 0.00 | 0.00 | 0.00 | 38 | 1020.9 |
| 20260506175507 | 55 | 314 | 1.0 | 3.0 | 0.00 | 0.00 | 0.00 | 40 | 1021.0 |
| 20260506175003 | 54 | 256 | 1.0 | 3.0 | 0.00 | 0.00 | 0.00 | 36 | 1021.2 |
| 20260506174502 | 53 | 304 | 2.0 | 4.0 | 0.00 | 0.00 | 0.00 | 37 | 1021.3 |
| 20260506173957 | 53 | 337 | 1.0 | 1.0 | 0.00 | 0.00 | 0.00 | 40 | 1021.3 |
| 20260506173455 | 53 | 318 | 1.0 | 2.0 | 0.00 | 0.00 | 0.00 | 39 | 1021.4 |
| 20260506172952 | 52 | 352 | 1.0 | 4.0 | 0.00 | 0.00 | 0.00 | 38 | 1021.3 |
| 20260506172450 | 54 | 357 | 0.0 | 2.0 | 0.00 | 0.00 | 0.00 | 38 | 1021.1 |
| 20260506171945 | 53 | 2 | 1.0 | 2.0 | 0.00 | 0.00 | 0.00 | 37 | 1021.3 |
| 20260506171443 | 52 | 267 | 1.0 | 2.0 | 0.00 | 0.00 | 0.00 | 38 | 1021.2 |
| 20260506170941 | 52 | 325 | 1.0 | 4.0 | 0.00 | 0.00 | 0.00 | 42 | 1021.3 |
| 20260506170437 | 52 | 0 | 1.0 | 3.0 | 0.00 | 0.00 | 0.00 | 38 | 1021.3 |
| 20260506165936 | 51 | 320 | 1.0 | 1.0 | 0.00 | 0.00 | 0.00 | 39 | 1021.2 |
| 20260506165434 | 51 | 324 | 0.0 | 2.0 | 0.00 | 0.00 | 0.00 | 41 | 1021.4 |
| 20260506164924 | 52 | 352 | 1.0 | 4.0 | 0.00 | 0.00 | 0.00 | 39 | 1021.4 |
| 20260506164421 | 51 | 5 | 1.0 | 2.0 | 0.00 | 0.00 | 0.00 | 38 | 1021.2 |
| 20260506163919 | 51 | 329 | 0.0 | 2.0 | 0.00 | 0.00 | 0.00 | 40 | 1021.3 |
| 20260506163413 | 50 | 11 | 1.0 | 4.0 | 0.00 | 0.00 | 0.00 | 38 | 1021.3 |
| 20260506162908 | 52 | 350 | 4.0 | 6.0 | 0.00 | 0.00 | 0.00 | 38 | 1021.3 |
| 20260506162407 | 53 | 310 | 1.0 | 2.0 | 0.00 | 0.00 | 0.00 | 38 | 1021.1 |
| 20260506161904 | 53 | 347 | 1.0 | 1.0 | 0.00 | 0.00 | 0.00 | 40 | 1021.1 |
| 20260506161401 | 53 | 357 | 2.0 | 2.0 | 0.00 | 0.00 | 0.00 | 38 | 1021.1 |
| 20260506160853 | 53 | 102 | 2.0 | 3.0 | 0.00 | 0.00 | 0.00 | 39 | 1021.1 |
| 20260506160350 | 53 | 17 | 2.0 | 3.0 | 0.00 | 0.00 | 0.00 | 39 | 1021.1 |
| 20260506155848 | 53 | 342 | 1.0 | 2.0 | 0.00 | 0.00 | 0.00 | 36 | 1021.2 |
| 20260506155345 | 52 | 9 | 1.0 | 3.0 | 0.00 | 0.00 | 0.00 | 37 | 1021.2 |
| 20260506153502 | 52 | 302 | 0.0 | 1.0 | 0.00 | 0.00 | 0.00 | 39 | 1021.3 |
| 20260506153000 | 51 | 347 | 1.0 | 3.0 | 0.00 | 0.00 | 0.00 | 39 | 1021.4 |
| 20260506152456 | 53 | 359 | 1.0 | 1.0 | 0.00 | 0.00 | 0.00 | 41 | 1021.3 |
| 20260506151954 | 50 | 318 | 1.0 | 1.0 | 0.00 | 0.00 | 0.00 | 42 | 1021.3 |
| 20260506151451 | 50 | 16 | 1.0 | 2.0 | 0.00 | 0.00 | 0.00 | 39 | 1021.4 |
| 20260506150949 | 51 | 343 | 1.0 | 1.0 | 0.00 | 0.00 | 0.00 | 41 | 1021.4 |
| 20260506150445 | 51 | 288 | 0.0 | 2.0 | 0.00 | 0.00 | 0.00 | 38 | 1021.4 |
| 20260506145942 | 50 | 277 | 0.0 | 3.0 | 0.00 | 0.00 | 0.00 | 38 | 1021.3 |
| 20260506145438 | 51 | 316 | 0.0 | 1.0 | 0.00 | 0.00 | 0.00 | 40 | 1021.3 |
| 20260506144936 | 51 | 282 | 1.0 | 1.0 | 0.00 | 0.00 | 0.00 | 41 | 1021.3 |
| 20260506144432 | 50 | 318 | 0.0 | 1.0 | 0.00 | 0.00 | 0.00 | 42 | 1021.3 |
| 20260506143931 | 51 | 332 | 0.0 | 1.0 | 0.00 | 0.00 | 0.00 | 42 | 1021.0 |
| 20260506143427 | 49 | 292 | 0.0 | 1.0 | 0.00 | 0.00 | 0.00 | 45 | 1021.3 |
| 20260506142926 | 48 | 282 | 1.0 | 2.0 | 0.00 | 0.00 | 0.00 | 46 | 1021.2 |
| 20260506142423 | 49 | 356 | 0.0 | 1.0 | 0.00 | 0.00 | 0.00 | 48 | 1021.3 |
| 20260506141921 | 49 | 83 | 0.0 | 0.0 | 0.00 | 0.00 | 0.00 | 45 | 1021.3 |
| 20260506141419 | 48 | 91 | 0.0 | 0.0 | 0.00 | 0.00 | 0.00 | 46 | 1021.4 |
| 20260506140917 | 48 | 105 | 1.0 | 2.0 | 0.00 | 0.00 | 0.00 | 44 | 1021.2 |
| 20260506140413 | 47 | 325 | 1.0 | 1.0 | 0.00 | 0.00 | 0.00 | 55 | 1021.2 |
| 20260506135911 | 46 | 5 | 0.0 | 2.0 | 0.00 | 0.00 | 0.00 | 55 | 1021.1 |
| 20260506135408 | 45 | 346 | 1.0 | 1.0 | 0.00 | 0.00 | 0.00 | 62 | 1021.0 |
| 20260506134904 | 44 | 346 | 0.0 | 1.0 | 0.00 | 0.00 | 0.00 | 62 | 1020.9 |
| 20260506134400 | 43 | 0 | 0.0 | 1.0 | 0.00 | 0.00 | 0.00 | 64 | 1021.1 |
| 20260506133857 | 43 | 13 | 1.0 | 2.0 | 0.00 | 0.00 | 0.00 | 63 | 1021.1 |
| 20260506133354 | 43 | 337 | 0.0 | 0.0 | 0.00 | 0.00 | 0.00 | 65 | 1020.9 |
| 20260506132850 | 43 | 337 | 0.0 | 1.0 | 0.00 | 0.00 | 0.00 | 66 | 1021.0 |
| 20260506132348 | 42 | 337 | 1.0 | 1.0 | 0.00 | 0.00 | 0.00 | 67 | 1021.0 |
| 20260506131846 | 42 | 354 | 0.0 | 2.0 | 0.00 | 0.00 | 0.00 | 67 | 1021.0 |
| 20260506131342 | 42 | 355 | 1.0 | 1.0 | 0.00 | 0.00 | 0.00 | 67 | 1021.1 |
| 20260506130840 | 42 | 352 | 0.0 | 1.0 | 0.00 | 0.00 | 0.00 | 68 | 1021.0 |
| 20260506130336 | 42 | 352 | 0.0 | 1.0 | 0.00 | 0.00 | 0.00 | 70 | 1020.8 |
| 20260506125834 | 41 | 359 | 0.0 | 1.0 | 0.00 | 0.00 | 0.00 | 69 | 1020.9 |
| 20260506125332 | 41 | 359 | 0.0 | 1.0 | 0.00 | 0.00 | 0.00 | 70 | 1020.5 |
| 20260506124830 | 41 | 359 | 0.0 | 1.0 | 0.00 | 0.00 | 0.00 | 69 | 1020.5 |
| 20260506124326 | 41 | 359 | 0.0 | 1.0 | 0.00 | 0.00 | 0.00 | 71 | 1020.5 |
| 20260506123824 | 41 | 359 | 0.0 | 0.0 | 0.00 | 0.00 | 0.00 | 73 | 1020.5 |
| 20260506123322 | 40 | 3 | 0.0 | 1.0 | 0.00 | 0.00 | 0.00 | 74 | 1020.3 |
| 20260506122819 | 40 | 3 | 0.0 | 0.0 | 0.00 | 0.00 | 0.00 | 75 | 1020.3 |
| 20260506122316 | 40 | 3 | 0.0 | 0.0 | 0.00 | 0.00 | 0.00 | 77 | 1020.1 |
| 20260506121814 | 40 | 3 | 0.0 | 0.0 | 0.00 | 0.00 | 0.00 | 77 | 1020.1 |
| 20260506121310 | 40 | 3 | 0.0 | 0.0 | 0.00 | 0.00 | 0.00 | 76 | 1020.0 |
| 20260506120808 | 40 | 3 | 0.0 | 0.0 | 0.00 | 0.00 | 0.00 | 76 | 1020.1 |
| 20260506120305 | 40 | 3 | 0.0 | 0.0 | 0.00 | 0.00 | 0.00 | 76 | 1020.0 |
| 20260506115803 | 40 | 3 | 0.0 | 0.0 | 0.00 | 0.00 | 0.00 | 76 | 1019.9 |
| 20260506115301 | 40 | 3 | 0.0 | 0.0 | 0.00 | 0.00 | 0.00 | 77 | 1019.8 |
| 20260506114759 | 40 | 3 | 0.0 | 1.0 | 0.00 | 0.00 | 0.00 | 76 | 1019.9 |
| 20260506114256 | 40 | 3 | 0.0 | 0.0 | 0.00 | 0.00 | 0.00 | 76 | 1019.9 |
| 20260506113754 | 40 | 3 | 0.0 | 0.0 | 0.00 | 0.00 | 0.00 | 77 | 1019.6 |
| 20260506113252 | 40 | 3 | 0.0 | 0.0 | 0.00 | 0.00 | 0.00 | 79 | 1019.6 |
| 20260506112748 | 40 | 3 | 0.0 | 0.0 | 0.00 | 0.00 | 0.00 | 78 | 1019.6 |
| 20260506112246 | 40 | 3 | 0.0 | 1.0 | 0.00 | 0.00 | 0.00 | 80 | 1019.5 |
| 20260506111743 | 40 | 3 | 0.0 | 1.0 | 0.00 | 0.00 | 0.00 | 80 | 1019.5 |
| 20260506111241 | 40 | 3 | 0.0 | 0.0 | 0.00 | 0.00 | 0.00 | 81 | 1019.5 |
| 20260506110737 | 40 | 4 | 0.0 | 1.0 | 0.00 | 0.00 | 0.00 | 83 | 1019.5 |
| 20260506110235 | 40 | 3 | 0.0 | 0.0 | 0.00 | 0.00 | 0.00 | 83 | 1019.4 |
| 20260506105731 | 40 | 3 | 0.0 | 1.0 | 0.00 | 0.00 | 0.00 | 83 | 1019.5 |
| 20260506105229 | 40 | 348 | 0.0 | 1.0 | 0.00 | 0.00 | 0.00 | 84 | 1019.3 |
| 20260506104727 | 40 | 348 | 0.0 | 1.0 | 0.00 | 0.00 | 0.00 | 85 | 1019.2 |
| 20260506104224 | 40 | 348 | 0.0 | 1.0 | 0.00 | 0.00 | 0.00 | 86 | 1019.3 |
| 20260506103721 | 40 | 348 | 0.0 | 1.0 | 0.00 | 0.00 | 0.00 | 88 | 1019.4 |
| 20260506103218 | 40 | 348 | 0.0 | 0.0 | 0.00 | 0.00 | 0.00 | 88 | 1019.3 |
| 20260506102716 | 40 | 348 | 0.0 | 0.0 | 0.00 | 0.00 | 0.00 | 89 | 1019.2 |
| 20260506102214 | 40 | 348 | 0.0 | 0.0 | 0.00 | 0.00 | 0.00 | 88 | 1019.1 |
| 20260506101710 | 40 | 348 | 0.0 | 0.0 | 0.00 | 0.00 | 0.00 | 88 | 1019.1 |
| 20260506101207 | 40 | 348 | 0.0 | 0.0 | 0.00 | 0.00 | 0.00 | 88 | 1019.1 |
| 20260506100705 | 40 | 348 | 0.0 | 1.0 | 0.00 | 0.00 | 0.00 | 87 | 1019.2 |
| 20260506100203 | 41 | 348 | 0.0 | 1.0 | 0.00 | 0.00 | 0.00 | 87 | 1018.9 |
| 20260506095701 | 41 | 348 | 0.0 | 0.0 | 0.00 | 0.00 | 0.00 | 86 | 1018.9 |
| 20260506095157 | 41 | 348 | 1.0 | 1.0 | 0.00 | 0.00 | 0.00 | 85 | 1019.0 |
| 20260506094655 | 41 | 348 | 0.0 | 1.0 | 0.00 | 0.00 | 0.00 | 85 | 1019.1 |
| 20260506094153 | 41 | 348 | 0.0 | 0.0 | 0.00 | 0.00 | 0.00 | 85 | 1019.0 |
| 20260506093652 | 41 | 348 | 0.0 | 1.0 | 0.00 | 0.00 | 0.00 | 85 | 1018.7 |